Location: Hormuz
(27.0871°N, 56.4580°E)
Time: 11:08:42
(UTC+04:30)

Tianhe-1 - Visible Passes

Search period start: 18 June 2021 00:00
Search period end: 28 June 2021 00:00
Orbit: 375 x 386 km, 41.5° (Epoch: 18 June)

Date Brightness Start Highest point End Pass type
(mag) Time Alt. Az. Time Alt. Az. Time Alt. Az.
18 Jun 2.5 04:39:43 18° WNW 04:41:18 28° NNW 04:44:06 10° NE visible
19 Jun 2.9 03:41:31 32° NE 03:41:31 32° NE 03:43:24 10° NE visible
19 Jun 3.8 05:16:20 10° NW 05:17:29 11° NNW 05:18:37 10° N visible
20 Jun 3.3 04:15:23 16° NW 04:16:17 17° NNW 04:18:31 10° NNE visible
21 Jun 4.1 03:17:05 16° NNE 03:17:05 16° NNE 03:18:00 10° NE visible
22 Jun 3.9 03:50:51 11° NNW 03:51:18 12° NNW 03:52:32 10° N visible
27 Jun 4.1 05:13:54 10° NNW 05:15:38 14° NNE 05:17:23 10° NE visible
